Regional Weather Roundup
Issued by NWS

Home | Current Version | Previous Version | Graphics & Text | Print | Product List | Glossary On
Versions: 1 2 3 4 5 6 7 8 9 10 11 12 13 14 15 16 17 18 19 20 21 22 23 24 25 26 27 28 29 30 31 32 33 34 35 36 37 38 39 40 41 42 43 44 45 46 47 48 49 50
000
ASUS43 KLOT 011903
RWRIL

ILLINOIS REGIONAL WEATHER ROUNDUP
NATIONAL WEATHER SERVICE CHICAGO/ROMEOVILLE IL
100 PM CST WED MAR 01 2017

NOTE: "FAIR" INDICATES FEW OR NO CLOUDS BELOW 12,000 FEET WITH NO
SIGNIFICANT WEATHER AND/OR OBSTRUCTIONS TO VISIBILITY.

* THESE STATIONS ARE NOT UNDER NWS QUALITY CONTROL. THEY ALSO MAY NOT
  REPORT WEATHER SUCH AS PRECIPITATION OR FOG.

ILZ001-002-007-009-015-016-024-012000-
NORTHWEST ILLINOIS

CITY           SKY/WX    TMP DP  RH WIND       PRES   REMARKS
MOLINE         CLOUDY    39  29  67 NW24G36   29.79R WCI  28
STERLING*      CLOUDY    37  31  78 W28G37    29.72R WCI  25
$$

ILZ003-004-008-010-011-017-018-012000-
NORTH CENTRAL ILLINOIS

CITY           SKY/WX    TMP DP  RH WIND       PRES   REMARKS
ROCKFORD       LGT RAIN  38  34  85 W16       29.67R WCI  29
FREEPORT*      FLURRIES  35  32  90 W22       29.70R WCI  23
$$

ILZ005-006-012>014-019>023-012000-
NORTHEAST ILLINOIS

CITY           SKY/WX    TMP DP  RH WIND       PRES   REMARKS
CHICAGO-OHARE  DRIZZLE   41  35  79 W20G28    29.60S
CHICAGO-MIDWAY CLOUDY    41  35  79 W18G30    29.61R
AURORA         LGT RAIN  39  36  89 W28G37    29.64S FOG     WCI  28
WAUKEGAN       CLOUDY    37  31  78 NW14G22   29.60R WCI  28
DUPAGE AIRPORT CLOUDY    39  34  82 W17G24    29.62R WCI  30
WHEELING       LGT RAIN  38  33  82 NW16G25   29.62R WCI  29
NORTHERLY ISL    N/A     40  34  79 W15         N/A
$$

LMZ740>746-012000-
SOUTHERN LAKE MICHIGAN

STATION/POSITION SKY/WX   TEMP    WIND        PRES    VSBY  WAVE
                          AIR SEA DIR/SP/G                  HT/PER
                          (F)     (DEG/KT/KT) (MB)    (MI)  (FT/S)
HARRISON CRIB              41     290/ 27/ 30   N/A
BURNHAM HARBOR             40     290/  9/ 20   N/A
CALUMET HARBOR             42     250/  8/ 17 1002.2R
BURNS HARBOR               40     280/ 19/ 22 1003.0R
MICHIGAN CITY              37     250/ 14/ 16   N/A
$$

ILZ025>027-034>036-040-047-049-050-058-095>099-012000-
WEST-CENTRAL ILLINOIS

CITY           SKY/WX    TMP DP  RH WIND       PRES   REMARKS
QUINCY         CLOUDY    41  33  73 W22G37    29.93R
GALESBURG*     CLOUDY    37  32  82 W22G31    29.83  WCI  26
MACOMB*        CLOUDY    40  34  79 W30G36    29.88S
$$

ILZ028>032-037-038-041>044-048-051>054-059>061-012000-
CENTRAL ILLINOIS

CITY           SKY/WX    TMP DP  RH WIND       PRES   REMARKS
BLOOMINGTON    CLOUDY    39  34  81 W24G37    29.77R WCI  28
DECATUR        CLOUDY    42  34  73 W23G33    29.83R
PEORIA         CLOUDY    39  32  76 W22G35    29.80R WCI  29
SPRINGFIELD    CLOUDY    43  34  70 W22G37    29.86R
TAYLORVILLE    NOT AVBL
$$

ILZ033-039-045-046-055>057-062-063-012000-
EAST-CENTRAL ILLINOIS

CITY           SKY/WX    TMP DP  RH WIND       PRES   REMARKS
CHAMPAIGN      CLOUDY    41  35  79 W31G46    29.78R
MATTOON        CLOUDY    44  37  76 W26G40    29.81R
$$

ILZ079-100>102-012000-
SOUTHWEST ILLINOIS

CITY           SKY/WX    TMP DP  RH WIND       PRES   REMARKS
ALTON          PTSUNNY   46  34  61 W24G38    29.93R
BELLEVILLE     MOSUNNY   50  33  52 W18G35    29.91R
CAHOKIA*       MOSUNNY   50  32  50 NW24G36   29.94R
SPARTA*        PTSUNNY   50  36  57 NW21G28   29.93S
$$

ILZ064>066-069>071-074>076-080>082-084>086-088>090-092>094-012000-
SOUTH-CENTRAL ILLINOIS

CITY           SKY/WX    TMP DP  RH WIND       PRES   REMARKS
CARBONDALE     MOSUNNY   53  39  59 NW22G29   29.91R
MARION         PTSUNNY   57  41  54 NW10G23   29.91S
MT. VERNON     PTSUNNY   50  37  61 W14G24    29.90R
SALEM*         CLOUDY    48  36  63 W26G33    29.89R
$$

ILZ067-068-072-073-078-083-087-091-012000-
SOUTHEAST ILLINOIS

CITY           SKY/WX    TMP DP  RH WIND       PRES   REMARKS
LAWRENCEVILLE  CLOUDY    48  41  76 W22G36    29.83R
FLORA*         CLOUDY    48  40  71 W22G31    29.87R
HARRISBURG*    CLOUDY    54  43  66 W21G39    29.90R
$$

ABBREVIATIONS USED IN REMARKS
   TC - TEMPERATURE IN CELSIUS
  WCI - WIND CHILL INDEX
   HX - HEAT INDEX
  VSB - VISIBILITY
$$




USA.gov is the U.S. government's official web portal to all federal, state and local government web resources and services.